Retour au catalogue

CZ-3A DEB

LostHEO
NORAD 36970·DEBRIS·🇨🇳 China

Lancé Feb 2, 2007 depuis Xichang Satellite Launch Center

Loading…

Prochains Passages (prochaines 24 heures)

TLE

PériméSource: Space-Track

Époque: Feb 5, 2017, 14:44 UTC

1 36970U 07003AG  17036.61393132  .00000268  00000-0  99372-2 0  9998
2 36970  24.7500 191.5573 7542500 251.5532  13.1415  1.76645588 58550

Suivez CZ-3A DEB en temps réel avec AllMySat

Download on the App Store